Location: Brno
(49.2000°N, 16.6330°E)
Time: 20:41:47
(UTC+01:00)

BREEZE M DEB (TANK) - Visible Passes

Search period start: 01 February 2015 00:00
Search period end: 11 February 2015 00:00
Orbit: 297 x 12163 km, 49.5° (Epoch: 31 January)

Date Brightness Start Highest point End Pass type
(mag) Time Alt. Az. Time Alt. Az. Time Alt. Az.
01 Feb 9.2 01:13:42 10° SE 02:01:13 27° ESE 03:02:52 10° NE visible
01 Feb 8.9 04:58:21 10° SSW 06:33:51 76° SE 07:19:55 10° ENE visible
02 Feb 9.2 00:48:48 10° ESE 01:27:29 22° E 02:27:06 10° NE visible
02 Feb 8.9 04:24:59 10° SSW 05:56:24 72° SE 06:46:56 10° ENE visible
03 Feb 9.3 00:26:25 10° ESE 00:54:16 17° E 01:49:59 10° NE visible
03 Feb 8.9 03:52:06 10° SSW 05:19:00 67° SE 06:13:47 10° ENE visible
04 Feb 9.4 00:08:02 10° E 00:21:35 13° E 01:10:18 10° ENE visible
04 Feb 8.8 03:19:42 10° S 04:41:46 62° SE 05:40:26 10° ENE visible
05 Feb 8.8 02:47:47 10° S 04:04:50 57° SE 05:06:53 10° ENE visible
06 Feb 8.8 02:16:23 10° S 03:28:19 51° ESE 04:33:05 10° ENE visible
06 Feb 8.5 06:27:55 10° WSW 08:12:37 89° S 08:44:48 10° E visible
07 Feb 8.8 01:45:34 10° SSE 02:52:15 46° ESE 03:59:00 10° NE visible
07 Feb 8.6 05:51:49 10° SW 07:35:24 88° SSE 08:11:54 10° E visible
08 Feb 8.8 01:15:26 10° SSE 02:16:41 41° ESE 03:24:35 10° NE visible
08 Feb 8.7 05:16:24 10° SW 06:57:39 85° SSE 07:38:50 10° ENE visible
09 Feb 8.8 00:46:09 10° SE 01:41:38 35° ESE 02:49:44 10° NE visible
09 Feb 8.8 04:41:36 10° SW 06:19:28 82° SSE 07:05:38 10° ENE visible
10 Feb 8.9 00:17:58 10° SE 01:07:06 30° ESE 02:14:22 10° NE visible
10 Feb 8.7 04:07:19 10° SSW 05:41:01 79° SSE 06:32:16 10° ENE visible
